QPF
0.02 0.03 0.04 0.05 0.03 0.02 0.01 0.01 0.00 0.01 0.01 0.00 0.00 0.00 0.00 0.00 0.00 0.00 0.00 0.00 0.00 0.00 0.00 0.00 0.00 0.00 0.00 0.01 0.00 0.00 0.00 0.00 0.01 0.01 0.00 0.01 0.02 0.02 0.02 0.01 0.02 0.02 0.03
0.02 0.03 0.04 0.05 0.04 0.02 0.01 0.00 0.00 0.00 0.00 0.00 0.01 0.00 0.00 0.00 0.00 0.00 0.00 0.00 0.00 0.00 0.00 0.00 0.00 0.00 0.01 0.01 0.00 0.00 0.00 0.00 0.00 0.00 0.01 0.01 0.01 0.01 0.02 0.01 0.01 0.01 0.02
0.03 0.03 0.04 0.04 0.04 0.02 0.01 0.00 0.00 0.00 0.00 0.01 0.01 0.00 0.00 0.00 0.00 0.00 0.00 0.00 0.00 0.00 0.00 0.00 0.00 0.00 0.00 0.00 0.00 0.00 0.00 0.00 0.00 0.00 0.00 0.01 0.01 0.02 0.02 0.01 0.01 0.01 0.01
0.02 0.02 0.03 0.04 0.03 0.02 0.01 0.00 0.01 0.01 0.01 0.01 0.00 0.00 0.00 0.00 0.00 0.00 0.00 0.00 0.00 0.00 0.00 0.00 0.00 0.00 0.00 0.00 0.00 0.00 0.00 0.00 0.00 0.00 0.00 0.00 0.01 0.02 0.01 0.01 0.01 0.01 0.01
0.01 0.01 0.01 0.02 0.02 0.02 0.01 0.00 0.01 0.01 0.01 0.01 0.01 0.00 0.00 0.00 0.00 0.00 0.00 0.00 0.00 0.00 0.00 0.00 0.00 0.01 0.01 0.00 0.00 0.00 0.00 0.00 0.00 0.00 0.00 0.00 0.01 0.02 0.01 0.01 0.01 0.01 0.01
0.02 0.02 0.01 0.01 0.02 0.01 0.01 0.00 0.00 0.01 0.01 0.01 0.01 0.00 0.00 0.00 0.00 0.00 0.00 0.00 0.00 0.00 0.00 0.00 0.00 0.00 0.00 0.00 0.00 0.00 0.00 0.00 0.00 0.00 0.00 0.00 0.01 0.03 0.03 0.02 0.01 0.01 0.00
0.01 0.01 0.01 0.01 0.01 0.00 0.00 0.00 0.00 0.01 0.01 0.01 0.01 0.01 0.00 0.00 0.00 0.00 0.00 0.00 0.00 0.00 0.00 0.00 0.00 0.00 0.00 0.00 0.00 0.00 0.00 0.00 0.00 0.00 0.00 0.00 0.01 0.03 0.03 0.02 0.01 0.00 0.01
0.00 0.01 0.01 0.01 0.00 0.00 0.00 0.00 0.00 0.00 0.01 0.02 0.01 0.01 0.00 0.00 0.00 0.00 0.00 0.00 0.00 0.00 0.00 0.00 0.00 0.00 0.00 0.00 0.00 0.00 0.00 0.00 0.00 0.00 0.00 0.00 0.00 0.01 0.01 0.02 0.01 0.00 0.00
0.00 0.01 0.01 0.01 0.01 0.00 0.00 0.00 0.00 0.00 0.01 0.02 0.01 0.01 0.00 0.00 0.00 0.00 0.00 0.00 0.00 0.00 0.00 0.00 0.00 0.00 0.00 0.00 0.00 0.00 0.00 0.00 0.00 0.00 0.00 0.00 0.00 0.01 0.01 0.01 0.00 0.00 0.00
0.00 0.00 0.01 0.01 0.01 0.01 0.00 0.00 0.00 0.00 0.01 0.01 0.01 0.01 0.00 0.00 0.00 0.00 0.00 0.00 0.00 0.00 0.00 0.00 0.00 0.00 0.00 0.00 0.00 0.00 0.00 0.00 0.00 0.00 0.00 0.00 0.00 0.00 0.00 0.00 0.00 0.00 0.01
0.00 0.01 0.01 0.01 0.01 0.01 0.01 0.00 0.00 0.00 0.01 0.01 0.01 0.01 0.00 0.00 0.00 0.00 0.00 0.00 0.00 0.00 0.00 0.00 0.00 0.00 0.00 0.00 0.00 0.00 0.00 0.00 0.00 0.00 0.00 0.00 0.00 0.00 0.00 0.01 0.00 0.00 0.00
0.01 0.01 0.02 0.02 0.01 0.02 0.02 0.01 0.00 0.01 0.01 0.01 0.01 0.01 0.00 0.00 0.00 0.00 0.00 0.00 0.00 0.00 0.00 0.00 0.00 0.00 0.00 0.00 0.00 0.00 0.00 0.00 0.00 0.00 0.00 0.00 0.00 0.00 0.00 0.00 0.00 0.00 0.00
0.01 0.01 0.02 0.02 0.01 0.01 0.01 0.00 0.00 0.01 0.00 0.00 0.00 0.00 0.00 0.00 0.00 0.00 0.00 0.00 0.00 0.00 0.00 0.00 0.00 0.00 0.00 0.00 0.00 0.00 0.00 0.00 0.00 0.00 0.00 0.00 0.00 0.00 0.00 0.00 0.00 0.00 0.00
0.01 0.01 0.01 0.01 0.01 0.00 0.00 0.01 0.01 0.00 0.00 0.00 0.00 0.00 0.00 0.00 0.00 0.00 0.00 0.00 0.00 0.00 0.00 0.00 0.00 0.00 0.00 0.00 0.00 0.00 0.00 0.00 0.00 0.00 0.00 0.00 0.00 0.00 0.00 0.00 0.00 0.00 0.00
0.00 0.00 0.00 0.00 0.00 0.00 0.01 0.01 0.00 0.00 0.00 0.00 0.00 0.00 0.00 0.00 0.00 0.00 0.00 0.00 0.00 0.00 0.00 0.00 0.00 0.00 0.00 0.00 0.00 0.00 0.00 0.00 0.00 0.00 0.00 0.00 0.00 0.00 0.00 0.00 0.00 0.00 0.00
0.00 0.00 0.00 0.00 0.00 0.00 0.00 0.00 0.00 0.00 0.00 0.00 0.00 0.00 0.00 0.00 0.00 0.00 0.00 0.00 0.00 0.00 0.00 0.00 0.00 0.00 0.00 0.00 0.00 0.00 0.00 0.00 0.00 0.00 0.00 0.00 0.00 0.00 0.00 0.00 0.00 0.00 0.00
0.00 0.00 0.00 0.00 0.00 0.00 0.00 0.00 0.00 0.00 0.00 0.00 0.00 0.00 0.00 0.00 0.00 0.00 0.00 0.00 0.00 0.00 0.00 0.00 0.00 0.00 0.00 0.00 0.00 0.00 0.00 0.00 0.00 0.00 0.00 0.00 0.00 0.00 0.00 0.00 0.00 0.00 0.00
0.00 0.00 0.00 0.00 0.00 0.00 0.00 0.00 0.00 0.00 0.00 0.00 0.00 0.00 0.00 0.00 0.00 0.00 0.00 0.00 0.00 0.00 0.00 0.00 0.00 0.00 0.00 0.00 0.00 0.00 0.00 0.00 0.00 0.00 0.00 0.00 0.00 0.00 0.00 0.00 0.00 0.00 0.00
0.00 0.00 0.00 0.00 0.00 0.00 0.00 0.00 0.00 0.00 0.00 0.00 0.00 0.00 0.00 0.00 0.00 0.00 0.00 0.00 0.00 0.00 0.00 0.00 0.00 0.00 0.00 0.00 0.00 0.00 0.00 0.00 0.00 0.00 0.00 0.00 0.00 0.00 0.01 0.01 0.01 0.01 0.00
0.00 0.00 0.00 0.00 0.00 0.00 0.00 0.00 0.00 0.00 0.00 0.00 0.00 0.00 0.00 0.00 0.00 0.00 0.00 0.00 0.00 0.00 0.00 0.00 0.00 0.00 0.00 0.00 0.00 0.00 0.00 0.00 0.00 0.00 0.00 0.00 0.00 0.00 0.00 0.00 0.01 0.01 0.01
0.00 0.00 0.00 0.00 0.00 0.00 0.00 0.00 0.00 0.00 0.00 0.00 0.00 0.00 0.00 0.00 0.00 0.00 0.00 0.00 0.00 0.00 0.00 0.00 0.00 0.00 0.00 0.00 0.00 0.00 0.00 0.00 0.00 0.00 0.00 0.00 0.00 0.00 0.00 0.00 0.00 0.01 0.01
0.00 0.00 0.00 0.00 0.00 0.00 0.00 0.00 0.00 0.00 0.00 0.00 0.00 0.00 0.00 0.00 0.00 0.00 0.00 0.00 0.00 0.00 0.00 0.00 0.00 0.00 0.00 0.00 0.00 0.01 0.01 0.01 0.01 0.00 0.00 0.00 0.00 0.00 0.00 0.00 0.00 0.00 0.02
0.00 0.00 0.00 0.00 0.00 0.00 0.00 0.00 0.00 0.00 0.00 0.00 0.00 0.00 0.00 0.00 0.00 0.00 0.00 0.00 0.00 0.00 0.00 0.00 0.00 0.00 0.00 0.00 0.00 0.01 0.01 0.01 0.01 0.01 0.00 0.00 0.00 0.00 0.00 0.00 0.00 0.00 0.01
0.00 0.00 0.00 0.00 0.00 0.00 0.00 0.00 0.00 0.00 0.00 0.00 0.00 0.00 0.00 0.00 0.00 0.00 0.00 0.00 0.00 0.00 0.00 0.00 0.00 0.00 0.00 0.00 0.00 0.01 0.01 0.01 0.01 0.01 0.01 0.01 0.00 0.00 0.00 0.00 0.00 0.00 0.00
0.00 0.00 0.00 0.00 0.00 0.00 0.00 0.00 0.00 0.00 0.00 0.00 0.00 0.00 0.00 0.00 0.00 0.00 0.00 0.00 0.00 0.00 0.00 0.00 0.00 0.00 0.00 0.00 0.00 0.00 0.00 0.00 0.00 0.01 0.01 0.01 0.00 0.00 0.00 0.00 0.00 0.00 0.00
0.00 0.00 0.00 0.00 0.00 0.00 0.00 0.00 0.00 0.00 0.00 0.00 0.00 0.00 0.00 0.00 0.00 0.00 0.00 0.00 0.00 0.00 0.00 0.00 0.00 0.00 0.00 0.00 0.00 0.00 0.01 0.00 0.00 0.00 0.01 0.01 0.00 0.00 0.00 0.00 0.00 0.00 0.00
MSLP
1015.92 1016.20 1016.47 1016.71 1016.90 1017.05 1017.18 1017.32 1017.48 1017.67 1017.87 1018.08 1018.25 1018.38 1018.43 1018.41 1018.32 1018.19 1018.05 1017.91 1017.78 1017.68 1017.60 1017.51 1017.41 1017.28 1017.12 1016.93 1016.73 1016.52 1016.34 1016.20 1016.10 1016.03 1015.99 1015.94 1015.86 1015.74 1015.56 1015.33 1015.04 1014.73 1014.41
1015.87 1016.18 1016.48 1016.73 1016.92 1017.06 1017.18 1017.31 1017.47 1017.67 1017.90 1018.15 1018.37 1018.54 1018.64 1018.65 1018.58 1018.46 1018.31 1018.17 1018.04 1017.95 1017.88 1017.82 1017.76 1017.67 1017.54 1017.38 1017.19 1017.00 1016.81 1016.66 1016.55 1016.47 1016.41 1016.36 1016.28 1016.17 1016.00 1015.78 1015.50 1015.20 1014.89
1015.76 1016.10 1016.42 1016.68 1016.87 1017.01 1017.11 1017.23 1017.39 1017.60 1017.86 1018.15 1018.42 1018.64 1018.78 1018.83 1018.79 1018.69 1018.55 1018.40 1018.28 1018.19 1018.14 1018.10 1018.07 1018.01 1017.93 1017.80 1017.63 1017.45 1017.28 1017.12 1017.00 1016.91 1016.85 1016.80 1016.73 1016.63 1016.48 1016.28 1016.03 1015.75 1015.46
1015.60 1015.97 1016.32 1016.60 1016.80 1016.94 1017.04 1017.14 1017.29 1017.51 1017.78 1018.09 1018.39 1018.66 1018.84 1018.93 1018.92 1018.84 1018.72 1018.58 1018.46 1018.38 1018.33 1018.32 1018.31 1018.29 1018.24 1018.15 1018.03 1017.87 1017.71 1017.57 1017.45 1017.36 1017.30 1017.25 1017.19 1017.11 1016.98 1016.81 1016.59 1016.33 1016.06
1015.44 1015.85 1016.24 1016.56 1016.78 1016.91 1017.01 1017.10 1017.23 1017.43 1017.70 1018.01 1018.33 1018.62 1018.84 1018.96 1018.98 1018.92 1018.81 1018.68 1018.57 1018.49 1018.45 1018.46 1018.47 1018.49 1018.48 1018.43 1018.34 1018.23 1018.10 1017.98 1017.88 1017.80 1017.74 1017.70 1017.65 1017.58 1017.48 1017.33 1017.14 1016.90 1016.65
1015.31 1015.78 1016.23 1016.58 1016.83 1016.98 1017.06 1017.13 1017.24 1017.41 1017.65 1017.95 1018.27 1018.56 1018.80 1018.94 1018.98 1018.94 1018.84 1018.72 1018.61 1018.53 1018.50 1018.51 1018.55 1018.59 1018.62 1018.61 1018.58 1018.51 1018.42 1018.33 1018.25 1018.19 1018.15 1018.11 1018.07 1018.02 1017.93 1017.80 1017.63 1017.42 1017.17
1015.26 1015.80 1016.31 1016.71 1017.00 1017.16 1017.24 1017.28 1017.35 1017.47 1017.67 1017.94 1018.23 1018.52 1018.75 1018.90 1018.96 1018.94 1018.85 1018.74 1018.63 1018.55 1018.52 1018.53 1018.57 1018.63 1018.69 1018.72 1018.73 1018.70 1018.66 1018.61 1018.56 1018.52 1018.49 1018.47 1018.44 1018.39 1018.32 1018.20 1018.04 1017.84 1017.61
1015.31 1015.92 1016.49 1016.95 1017.27 1017.44 1017.51 1017.53 1017.56 1017.64 1017.79 1018.00 1018.26 1018.53 1018.75 1018.91 1018.98 1018.97 1018.89 1018.79 1018.68 1018.59 1018.55 1018.55 1018.60 1018.66 1018.73 1018.79 1018.83 1018.84 1018.84 1018.82 1018.80 1018.78 1018.77 1018.76 1018.74 1018.71 1018.64 1018.53 1018.38 1018.19 1017.96
1015.44 1016.12 1016.75 1017.26 1017.60 1017.79 1017.86 1017.85 1017.85 1017.88 1017.98 1018.16 1018.38 1018.62 1018.84 1019.00 1019.08 1019.08 1019.02 1018.92 1018.80 1018.71 1018.66 1018.64 1018.67 1018.73 1018.80 1018.87 1018.93 1018.97 1018.99 1019.00 1019.01 1019.01 1019.02 1019.02 1019.01 1018.98 1018.92 1018.82 1018.68 1018.50 1018.28
1015.63 1016.36 1017.03 1017.58 1017.95 1018.15 1018.22 1018.20 1018.18 1018.18 1018.26 1018.40 1018.60 1018.82 1019.03 1019.19 1019.28 1019.30 1019.25 1019.16 1019.06 1018.96 1018.89 1018.85 1018.86 1018.90 1018.96 1019.02 1019.09 1019.14 1019.18 1019.21 1019.24 1019.26 1019.27 1019.28 1019.28 1019.25 1019.20 1019.11 1018.99 1018.82 1018.61
1015.81 1016.57 1017.27 1017.83 1018.22 1018.44 1018.53 1018.53 1018.50 1018.51 1018.58 1018.71 1018.90 1019.12 1019.33 1019.50 1019.61 1019.65 1019.62 1019.54 1019.44 1019.34 1019.26 1019.21 1019.19 1019.21 1019.25 1019.30 1019.36 1019.41 1019.46 1019.50 1019.54 1019.57 1019.59 1019.61 1019.61 1019.59 1019.54 1019.46 1019.35 1019.20 1019.01
1015.90 1016.67 1017.38 1017.96 1018.37 1018.62 1018.73 1018.77 1018.79 1018.83 1018.92 1019.07 1019.27 1019.49 1019.71 1019.90 1020.03 1020.08 1020.08 1020.02 1019.94 1019.84 1019.76 1019.70 1019.67 1019.67 1019.69 1019.73 1019.77 1019.82 1019.87 1019.91 1019.95 1019.98 1020.00 1020.02 1020.02 1020.00 1019.95 1019.88 1019.78 1019.65 1019.49
1015.82 1016.60 1017.30 1017.89 1018.33 1018.62 1018.80 1018.91 1019.00 1019.10 1019.24 1019.43 1019.66 1019.90 1020.14 1020.34 1020.48 1020.56 1020.58 1020.54 1020.48 1020.40 1020.33 1020.27 1020.24 1020.23 1020.24 1020.26 1020.30 1020.34 1020.39 1020.43 1020.46 1020.49 1020.51 1020.52 1020.51 1020.48 1020.43 1020.36 1020.27 1020.15 1020.01
1015.53 1016.29 1016.99 1017.60 1018.08 1018.44 1018.71 1018.92 1019.11 1019.30 1019.52 1019.76 1020.03 1020.30 1020.55 1020.76 1020.91 1021.01 1021.05 1021.04 1021.00 1020.95 1020.90 1020.86 1020.84 1020.83 1020.84 1020.87 1020.90 1020.94 1020.97 1021.01 1021.04 1021.06 1021.06 1021.05 1021.03 1020.98 1020.92 1020.84 1020.75 1020.64 1020.51
1014.98 1015.73 1016.44 1017.07 1017.61 1018.07 1018.45 1018.79 1019.10 1019.40 1019.71 1020.02 1020.33 1020.62 1020.88 1021.10 1021.26 1021.36 1021.42 1021.44 1021.44 1021.42 1021.41 1021.39 1021.39 1021.40 1021.42 1021.45 1021.48 1021.52 1021.55 1021.57 1021.59 1021.60 1021.59 1021.56 1021.51 1021.44 1021.35 1021.26 1021.15 1021.03 1020.91
1014.19 1014.93 1015.65 1016.33 1016.95 1017.52 1018.03 1018.51 1018.95 1019.37 1019.77 1020.15 1020.51 1020.82 1021.08 1021.30 1021.46 1021.58 1021.66 1021.71 1021.74 1021.76 1021.78 1021.81 1021.83 1021.86 1021.89 1021.93 1021.96 1021.99 1022.02 1022.04 1022.04 1022.03 1022.00 1021.95 1021.87 1021.78 1021.66 1021.54 1021.41 1021.28 1021.16
1013.22 1013.95 1014.69 1015.42 1016.13 1016.81 1017.46 1018.08 1018.65 1019.19 1019.68 1020.13 1020.51 1020.84 1021.12 1021.34 1021.50 1021.64 1021.74 1021.82 1021.89 1021.95 1022.01 1022.06 1022.11 1022.16 1022.20 1022.24 1022.27 1022.29 1022.31 1022.32 1022.31 1022.28 1022.24 1022.16 1022.06 1021.94 1021.80 1021.64 1021.49 1021.35 1021.21
1012.13 1012.86 1013.62 1014.41 1015.20 1015.98 1016.75 1017.49 1018.18 1018.82 1019.39 1019.89 1020.32 1020.67 1020.96 1021.19 1021.37 1021.53 1021.66 1021.78 1021.88 1021.98 1022.08 1022.16 1022.23 1022.28 1022.32 1022.35 1022.37 1022.38 1022.38 1022.37 1022.35 1022.31 1022.25 1022.17 1022.05 1021.91 1021.75 1021.58 1021.40 1021.24 1021.08
1011.03 1011.75 1012.52 1013.35 1014.20 1015.07 1015.93 1016.76 1017.54 1018.26 1018.90 1019.45 1019.91 1020.30 1020.61 1020.87 1021.09 1021.28 1021.46 1021.62 1021.77 1021.91 1022.03 1022.13 1022.20 1022.24 1022.27 1022.27 1022.27 1022.25 1022.23 1022.21 1022.18 1022.13 1022.07 1021.98 1021.86 1021.72 1021.55 1021.37 1021.19 1021.00 1020.83
1010.02 1010.71 1011.48 1012.31 1013.19 1014.10 1015.02 1015.90 1016.74 1017.51 1018.20 1018.80 1019.31 1019.74 1020.11 1020.42 1020.70 1020.95 1021.18 1021.39 1021.59 1021.76 1021.89 1021.99 1022.05 1022.07 1022.07 1022.04 1021.99 1021.95 1021.90 1021.86 1021.83 1021.78 1021.73 1021.65 1021.55 1021.42 1021.27 1021.09 1020.90 1020.71 1020.52
1009.15 1009.80 1010.53 1011.34 1012.22 1013.13 1014.05 1014.95 1015.82 1016.62 1017.34 1017.98 1018.55 1019.04 1019.47 1019.86 1020.22 1020.54 1020.85 1021.12 1021.36 1021.55 1021.70 1021.79 1021.82 1021.81 1021.76 1021.69 1021.60 1021.52 1021.45 1021.40 1021.36 1021.33 1021.29 1021.24 1021.17 1021.07 1020.94 1020.78 1020.60 1020.41 1020.21
1008.46 1009.04 1009.72 1010.47 1011.30 1012.17 1013.06 1013.95 1014.81 1015.62 1016.37 1017.06 1017.68 1018.24 1018.76 1019.24 1019.69 1020.10 1020.48 1020.81 1021.09 1021.30 1021.45 1021.52 1021.52 1021.47 1021.37 1021.26 1021.14 1021.03 1020.94 1020.88 1020.85 1020.83 1020.82 1020.80 1020.77 1020.70 1020.61 1020.48 1020.31 1020.12 1019.91
1007.92 1008.43 1009.02 1009.70 1010.45 1011.26 1012.09 1012.94 1013.77 1014.58 1015.35 1016.08 1016.76 1017.41 1018.01 1018.59 1019.12 1019.62 1020.06 1020.45 1020.76 1020.98 1021.12 1021.17 1021.14 1021.05 1020.92 1020.77 1020.62 1020.49 1020.39 1020.33 1020.31 1020.31 1020.33 1020.35 1020.35 1020.32 1020.26 1020.16 1020.01 1019.83 1019.61
1007.48 1007.91 1008.42 1009.01 1009.67 1010.40 1011.16 1011.96 1012.76 1013.56 1014.34 1015.10 1015.85 1016.56 1017.25 1017.91 1018.52 1019.08 1019.58 1020.00 1020.33 1020.55 1020.68 1020.71 1020.65 1020.54 1020.39 1020.22 1020.06 1019.92 1019.83 1019.78 1019.77 1019.79 1019.83 1019.87 1019.90 1019.90 1019.86 1019.78 1019.65 1019.48 1019.26
1007.06 1007.41 1007.84 1008.35 1008.94 1009.58 1010.28 1011.03 1011.80 1012.59 1013.38 1014.18 1014.96 1015.74 1016.49 1017.20 1017.87 1018.47 1019.00 1019.43 1019.76 1019.97 1020.09 1020.10 1020.04 1019.91 1019.76 1019.60 1019.45 1019.33 1019.25 1019.21 1019.21 1019.24 1019.29 1019.34 1019.38 1019.39 1019.36 1019.29 1019.17 1019.00 1018.78
1006.58 1006.87 1007.24 1007.69 1008.21 1008.79 1009.45 1010.15 1010.90 1011.68 1012.48 1013.30 1014.12 1014.93 1015.71 1016.45 1017.14 1017.75 1018.27 1018.69 1019.01 1019.22 1019.32 1019.33 1019.27 1019.16 1019.03 1018.90 1018.78 1018.68 1018.62 1018.60 1018.61 1018.64 1018.68 1018.72 1018.74 1018.74 1018.70 1018.63 1018.50 1018.33 1018.11
Thickness
5734 5737 5737 5737 5735 5734 5732 5731 5729 5728 5726 5724 5722 5720 5718 5718 5717 5717 5716 5715 5713 5712 5710 5708 5706 5704 5702 5700 5699 5698 5696 5694 5694 5694 5692 5694 5696 5697 5698 5700 5702 5704 5707
5729 5731 5733 5733 5732 5731 5730 5729 5727 5726 5725 5724 5722 5719 5717 5716 5715 5715 5714 5713 5711 5710 5708 5706 5704 5702 5701 5699 5697 5696 5693 5691 5691 5689 5686 5684 5687 5691 5695 5696 5698 5700 5703
5726 5728 5729 5730 5729 5728 5728 5728 5726 5725 5724 5723 5720 5718 5716 5714 5713 5712 5712 5711 5710 5708 5706 5705 5703 5701 5699 5697 5695 5693 5691 5688 5688 5687 5684 5679 5677 5680 5687 5690 5693 5695 5698
5726 5727 5728 5728 5728 5728 5728 5727 5726 5724 5723 5722 5720 5717 5713 5710 5710 5709 5709 5709 5708 5707 5705 5704 5702 5700 5698 5696 5694 5693 5690 5688 5685 5685 5683 5682 5680 5677 5677 5684 5688 5691 5694
5725 5726 5727 5728 5727 5727 5726 5725 5724 5723 5722 5721 5719 5716 5713 5711 5709 5709 5708 5707 5707 5706 5705 5703 5701 5699 5697 5695 5694 5692 5690 5687 5685 5683 5682 5680 5678 5677 5675 5675 5680 5685 5690
5724 5724 5725 5725 5724 5725 5724 5723 5722 5721 5720 5719 5717 5715 5712 5710 5709 5707 5706 5705 5705 5704 5704 5702 5701 5699 5697 5695 5693 5691 5689 5687 5685 5683 5681 5679 5677 5676 5674 5673 5674 5677 5684
5721 5721 5721 5720 5721 5721 5721 5720 5719 5718 5718 5717 5715 5714 5712 5711 5709 5707 5705 5703 5703 5702 5702 5702 5700 5698 5697 5695 5693 5691 5689 5687 5685 5683 5682 5680 5679 5677 5676 5674 5673 5674 5679
5719 5719 5720 5719 5719 5719 5719 5718 5717 5716 5716 5715 5713 5712 5711 5710 5708 5707 5705 5704 5703 5702 5702 5701 5700 5698 5697 5695 5693 5690 5688 5687 5685 5684 5682 5680 5679 5678 5677 5675 5673 5672 5674
5718 5718 5718 5717 5717 5718 5717 5717 5715 5714 5714 5713 5712 5711 5710 5709 5707 5706 5705 5704 5703 5703 5702 5701 5699 5698 5696 5694 5692 5690 5688 5686 5685 5683 5682 5680 5680 5679 5678 5677 5675 5672 5670
5716 5716 5716 5716 5716 5717 5716 5715 5714 5713 5712 5711 5710 5709 5708 5707 5706 5705 5703 5703 5702 5702 5701 5699 5698 5696 5695 5693 5691 5689 5687 5686 5684 5683 5682 5680 5679 5679 5678 5677 5675 5674 5672
5715 5714 5714 5714 5714 5714 5714 5712 5711 5710 5709 5708 5708 5707 5706 5705 5704 5703 5702 5701 5701 5700 5699 5698 5696 5695 5693 5692 5690 5688 5687 5685 5683 5682 5681 5680 5679 5678 5677 5676 5675 5674 5673
5713 5712 5711 5710 5710 5710 5709 5708 5708 5707 5706 5705 5704 5703 5702 5702 5701 5700 5700 5699 5698 5698 5697 5696 5694 5693 5691 5690 5688 5687 5685 5683 5682 5681 5680 5679 5678 5677 5676 5675 5674 5673 5673
5709 5708 5707 5707 5707 5706 5705 5705 5704 5704 5703 5702 5701 5700 5699 5698 5698 5697 5696 5696 5696 5695 5694 5693 5692 5690 5689 5688 5686 5685 5684 5682 5680 5679 5678 5677 5676 5675 5674 5673 5672 5672 5672
5707 5706 5704 5704 5703 5703 5703 5702 5701 5700 5700 5699 5698 5696 5695 5695 5694 5693 5693 5692 5692 5691 5690 5689 5688 5688 5687 5685 5684 5683 5681 5680 5678 5677 5676 5675 5674 5672 5672 5671 5670 5670 5669
5705 5704 5703 5701 5700 5699 5699 5698 5698 5697 5697 5695 5693 5692 5691 5691 5690 5689 5689 5688 5687 5687 5686 5685 5684 5684 5683 5682 5681 5680 5679 5677 5675 5674 5673 5673 5673 5672 5671 5670 5668 5667 5666
5705 5704 5702 5700 5698 5698 5697 5695 5694 5693 5692 5691 5689 5688 5687 5686 5685 5685 5684 5683 5682 5681 5680 5680 5679 5679 5679 5678 5678 5676 5674 5672 5671 5669 5669 5669 5669 5668 5668 5668 5667 5665 5663
5706 5703 5702 5700 5699 5697 5695 5693 5691 5690 5688 5686 5685 5684 5683 5681 5680 5680 5679 5677 5676 5675 5674 5673 5673 5672 5673 5673 5673 5672 5669 5667 5665 5664 5663 5664 5664 5663 5662 5662 5662 5661 5661
5705 5703 5701 5699 5697 5694 5692 5690 5688 5685 5683 5681 5680 5679 5678 5676 5675 5674 5672 5671 5670 5669 5668 5667 5667 5666 5667 5667 5667 5666 5663 5661 5660 5659 5658 5657 5657 5658 5657 5656 5655 5655 5654
5706 5704 5701 5698 5694 5691 5689 5686 5683 5680 5678 5676 5675 5674 5673 5671 5669 5668 5666 5665 5664 5663 5662 5661 5660 5659 5659 5660 5660 5659 5656 5654 5654 5653 5653 5652 5651 5652 5652 5650 5648 5648 5648
5704 5700 5697 5693 5690 5687 5684 5681 5678 5675 5674 5673 5672 5670 5669 5666 5664 5662 5660 5659 5657 5656 5655 5654 5653 5652 5652 5652 5652 5651 5649 5647 5646 5646 5646 5646 5645 5646 5645 5642 5641 5640 5640
5700 5697 5693 5690 5687 5683 5681 5677 5673 5672 5671 5670 5667 5665 5664 5662 5659 5656 5654 5652 5650 5649 5647 5646 5645 5644 5644 5644 5644 5643 5640 5639 5638 5637 5637 5638 5638 5638 5637 5635 5633 5632 5632
5694 5691 5688 5683 5680 5678 5676 5672 5669 5668 5666 5664 5662 5660 5658 5656 5654 5650 5647 5645 5642 5640 5638 5636 5636 5635 5635 5635 5635 5634 5633 5632 5629 5629 5629 5629 5630 5629 5627 5625 5624 5623 5622
5689 5685 5682 5677 5674 5672 5672 5668 5665 5663 5660 5657 5655 5652 5651 5648 5646 5643 5640 5636 5634 5631 5629 5627 5625 5625 5626 5625 5626 5625 5624 5623 5620 5620 5620 5620 5620 5618 5616 5615 5613 5611 5608
5682 5679 5675 5671 5668 5666 5665 5663 5660 5657 5654 5650 5647 5645 5642 5640 5637 5635 5632 5629 5625 5622 5621 5618 5617 5616 5616 5615 5615 5614 5613 5613 5611 5610 5610 5610 5608 5606 5604 5603 5600 5598 5595
5675 5673 5670 5667 5663 5660 5658 5656 5653 5651 5646 5643 5640 5637 5634 5631 5628 5626 5623 5621 5619 5616 5613 5611 5609 5606 5606 5607 5607 5604 5603 5602 5600 5600 5598 5597 5595 5593 5591 5589 5587 5585 5583
5669 5665 5662 5659 5656 5653 5650 5648 5646 5643 5639 5634 5631 5628 5625 5622 5619 5616 5614 5613 5611 5609 5607 5605 5602 5600 5599 5598 5597 5595 5594 5592 5591 5588 5585 5584 5582 5580 5578 5576 5575 5572 5570